Regional Weather Roundup
Issued by NWS

Home | Current Version | Previous Version | Graphics & Text | Print | Product List | Glossary On
Versions: 1 2 3 4 5 6 7 8 9 10 11 12 13 14 15 16 17 18 19 20 21 22 23 24 25 26 27 28 29 30 31 32 33 34 35 36 37 38 39 40 41 42 43 44 45 46 47 48 49 50
058
ASUS45 KCYS 270610
RWRWY

WYOMING REGIONAL WEATHER ROUNDUP
NATIONAL WEATHER SERVICE CHEYENNE WY
1200 AM MDT THU JUL 27 2017

NOTE:  "FAIR" INDICATES FEW OR NO CLOUDS BELOW 12,000 FEET
WITH NO SIGNIFICANT WEATHER AND/OR OBSTRUCTIONS TO VISIBILITY.

WYZ001-270700-
YELLOWSTONE NATIONAL PARK

CITY           SKY/WX    TMP DP  RH WIND       PRES   REMARKS
LK YELLOWSTONE   N/A     54  47  77 CALM      30.44R
6HR MIN TEMP:  54; 6HR MAX TEMP:  67;

W YELLOWSTONE  NOT AVBL

$$
WYZ002>013-054>058-071-098>099-270700-
NORTHERN WYOMING

CITY           SKY/WX    TMP DP  RH WIND       PRES   REMARKS
JACKSON        FAIR      63  50  63 W10       30.31R
CODY           FAIR      67  47  48 S7        30.19R
GREYBULL       FAIR      73  56  54 E3        30.10R
6HR MIN TEMP:  73; 6HR MAX TEMP:  90;

WORLAND        FAIR      73  56  54 SE9       30.11S
6HR MIN TEMP:  72; 6HR MAX TEMP:  86;

SHERIDAN       FAIR      68  55  63 S5        30.09S
6HR MIN TEMP:  66; 6HR MAX TEMP:  86;

BUFFALO        FAIR      70  52  52 S16       30.18F
6HR MIN TEMP:  65; 6HR MAX TEMP:  82; 6HR PCP:  0.11;

GILLETTE       FAIR      70  53  54 S13       30.17S
6HR MIN TEMP:  70; 6HR MAX TEMP:  82;

HULETT         FAIR      72  54  53 S7        30.20S
NEWCASTLE      FAIR      70  50  49 E7        30.22S

$$
WYZ014>020-022>026-101>103-270700-
CENTRAL WYOMING

CITY           SKY/WX    TMP DP  RH WIND       PRES   REMARKS
BIG PINEY      FAIR      56  50  80 CALM      30.33R
6HR MIN TEMP:  55; 6HR MAX TEMP:  74;

PINEDALE       FAIR      54  46  76 N7        30.35R
DUBOIS         FAIR      59  45  58 SW6       30.33R
LANDER         FAIR      66  51  58 W8        30.21S
6HR MIN TEMP:  64; 6HR MAX TEMP:  76;

RIVERTON       FAIR      65  56  72 NE8       30.21S
6HR MIN TEMP:  65; 6HR MAX TEMP:  80;

CASPER         MOCLDY    64  58  80 W10       30.24S
6HR MIN TEMP:  63; 6HR MAX TEMP:  79; 6HR PCP:  0.02;

DOUGLAS        MOCLDY    67  57  70 SE9       30.23F
6HR MIN TEMP:  67; 6HR MAX TEMP:  76; 6HR PCP: TRACE;


$$
WYZ021-027>030-104>119-270700-
SOUTHERN WYOMING

CITY           SKY/WX    TMP DP  RH WIND       PRES   REMARKS
EVANSTON       MOCLDY    64  53  67 SW16G30   30.37R
6HR MIN TEMP:  63; 6HR MAX TEMP:  78;

KEMMERER         N/A     61  50  67 W3        30.36R
FORT BRIDGER   FAIR      65  54  67 W6        30.37R
ROCK SPRINGS   FAIR      62  54  74 S5        30.32R
6HR MIN TEMP:  61; 6HR MAX TEMP:  70;

RAWLINS        FAIR      60  57  89 NE5       30.33F
6HR MIN TEMP:  59; 6HR MAX TEMP:  70; 6HR PCP: TRACE;

LARAMIE        FAIR      57  55  93 S9        30.37S
6HR MIN TEMP:  57; 6HR MAX TEMP:  61; 6HR PCP:  0.17;

CHEYENNE       CLOUDY    66  57  72 S6        30.32S
6HR MIN TEMP:  64; 6HR MAX TEMP:  70; 6HR PCP: TRACE;

TORRINGTON     FAIR      67  60  78 E7        30.20S
6HR MIN TEMP:  67; 6HR MAX TEMP:  79;

PINE BLUFFS    FAIR      64  55  72 SE3       30.28S

$$




USA.gov is the U.S. government's official web portal to all federal, state and local government web resources and services.